Date String (YYYY-MM-DD hh:mm:ss) UTC,Instrument flags,Ambient pressure (hPa),Sample flow (lpm),Bypass flow (lpm),Sample temperature (°C),Ambient temperature (°C),ASC tube jacket temperature (°C),LED temperature (°C),Box temperature (°C),Sample RH (%),Span deviation,Mass concentration (μg/m³),Mass concentration (μg/m³),Mass concentration (μg/m³)
DateTimeUTC,F1_M11,P_M11,Q1_M11,Q2_M11,T1_M11,T2_M11,T3_M11,T4_M11,T5_M11,U1_M11,ZSPAN_M11,X0_M11,X2_M11,X1_M11
2022-02-08 11:00:00,,0825.6,5.01,0.00,22.8,21.9,00.0,31.9,24.5,06.0,0000.0,0002.92,0000.82,0000.52
2022-02-08 11:01:00,,0825.6,5.01,0.00,22.8,21.8,00.0,31.9,24.4,05.9,0000.0,0003.35,0000.81,0000.51
2022-02-08 11:02:00,,0825.6,4.99,0.00,22.8,21.9,00.0,31.9,24.5,05.9,0000.0,0003.36,0000.81,0000.51
2022-02-08 11:03:00,,0825.5,5.00,0.00,22.8,21.9,00.0,31.9,24.5,06.0,0000.0,0004.05,0000.83,0000.51
2022-02-08 11:04:00,,0825.5,5.00,0.00,22.8,21.9,00.0,31.9,24.6,05.9,0000.0,0004.89,0000.88,0000.53
2022-02-08 11:05:00,,0825.6,5.01,0.00,22.8,21.9,00.0,31.9,24.5,06.1,0000.0,0004.91,0000.89,0000.53
2022-02-08 11:06:00,,0825.6,4.99,0.00,22.8,22.0,00.0,31.9,24.6,05.8,0000.0,0004.87,0000.84,0000.53
2022-02-08 11:07:00,,0825.7,5.02,0.00,22.8,22.0,00.0,31.9,24.6,05.9,0000.0,0004.79,0000.84,0000.53
2022-02-08 11:08:00,,0825.7,5.00,0.00,22.8,22.0,00.0,31.9,24.5,06.0,0000.0,0004.55,0000.82,0000.52
2022-02-08 11:09:00,,0825.8,4.99,0.00,22.8,22.0,00.0,31.8,24.5,05.9,0000.0,0004.44,0000.81,0000.52
2022-02-08 11:10:00,,0825.9,5.02,0.00,22.7,22.0,00.0,31.8,24.5,05.9,0000.0,0004.29,0000.79,0000.53
2022-02-08 11:11:00,,0826.0,4.99,0.00,22.7,22.0,00.0,31.8,24.5,06.2,0000.0,0003.59,0000.79,0000.53
2022-02-08 11:12:00,,0825.9,5.02,0.00,22.7,22.0,00.0,31.8,24.5,06.2,0000.0,0002.85,0000.78,0000.52
2022-02-08 11:13:00,,0825.8,4.99,0.00,22.7,21.9,00.0,31.8,24.4,06.1,0000.0,0002.88,0000.80,0000.52
2022-02-08 11:14:00,,0825.9,4.99,0.00,22.7,22.0,00.0,31.8,24.5,06.2,0000.0,0002.28,0000.79,0000.52
2022-02-08 11:15:00,,0825.7,5.00,0.00,22.7,22.0,00.0,31.8,24.5,06.3,0000.0,0001.61,0000.79,0000.52
2022-02-08 11:16:00,,0825.4,4.99,0.00,22.7,22.0,00.0,31.8,24.5,06.1,0000.0,0002.00,0000.81,0000.52
2022-02-08 11:17:00,,0825.5,5.02,0.00,22.7,21.9,00.0,31.8,24.4,06.2,0000.0,0003.28,0000.86,0000.52
2022-02-08 11:18:00,,0825.4,5.00,0.00,22.7,21.9,00.0,31.8,24.4,06.5,0000.0,0004.95,0000.92,0000.53
2022-02-08 11:19:00,,0825.3,4.99,0.00,22.7,21.9,00.0,31.7,24.5,06.1,0000.0,0005.55,0000.98,0000.54
2022-02-08 11:20:00,,0825.3,5.00,0.00,22.7,21.9,00.0,31.7,24.5,06.2,0000.0,0005.78,0001.02,0000.55
2022-02-08 11:21:00,,0825.2,5.01,0.00,22.7,21.8,00.0,31.7,24.5,06.3,0000.0,0005.94,0001.07,0000.55
2022-02-08 11:22:00,,0825.4,5.00,0.00,22.7,21.8,00.0,31.7,24.4,06.3,0000.0,0005.95,0001.07,0000.55
2022-02-08 11:23:00,,0825.5,4.99,0.00,22.6,21.7,00.0,31.7,24.4,06.4,0000.0,0006.02,0001.09,0000.56
2022-02-08 11:24:00,,0825.5,5.00,0.00,22.6,21.7,00.0,31.7,24.3,06.3,0000.0,0005.96,0001.07,0000.55
2022-02-08 11:25:00,,0825.5,5.01,0.00,22.6,21.7,00.0,31.7,24.3,06.5,0000.0,0006.00,0001.10,0000.55
2022-02-08 11:26:00,,0825.8,5.00,0.00,22.6,21.7,00.0,31.7,24.3,06.1,0000.0,0005.89,0001.09,0000.54
2022-02-08 11:27:00,,0826.0,4.99,0.00,22.5,21.7,00.0,31.6,24.2,06.1,0000.0,0005.59,0001.06,0000.54
2022-02-08 11:28:00,,0825.9,4.99,0.00,22.5,21.6,00.0,31.6,24.2,06.1,0000.0,0005.61,0001.02,0000.54
2022-02-08 11:29:00,,0826.1,5.01,0.00,22.5,21.6,00.0,31.6,24.2,06.1,0000.0,0004.16,0000.97,0000.53
2022-02-08 11:30:00,,0826.0,4.99,0.00,22.5,21.6,00.0,31.6,24.2,06.0,0000.0,0003.56,0000.91,0000.51
2022-02-08 11:31:00,,0825.9,5.00,0.00,22.5,21.6,00.0,31.6,24.2,06.2,0000.0,0003.30,0000.87,0000.50
2022-02-08 11:32:00,,0825.9,5.02,0.00,22.5,21.7,00.0,31.6,24.1,06.2,0000.0,0003.17,0000.83,0000.50
2022-02-08 11:33:00,,0825.8,5.00,0.00,22.4,21.7,00.0,31.6,24.1,06.3,0000.0,0003.23,0000.84,0000.50
2022-02-08 11:34:00,,0825.8,5.00,0.00,22.4,21.7,00.0,31.6,24.1,06.5,0000.0,0003.17,0000.81,0000.50
2022-02-08 11:35:00,,0825.8,5.02,0.00,22.4,21.6,00.0,31.6,24.1,06.2,0000.0,0003.22,0000.81,0000.50
2022-02-08 11:36:00,,0825.9,4.99,0.00,22.4,21.6,00.0,31.5,24.1,06.1,0000.0,0003.25,0000.77,0000.49
2022-02-08 11:37:00,,0825.9,5.01,0.00,22.4,21.6,00.0,31.5,24.1,06.2,0000.0,0004.05,0000.73,0000.49
2022-02-08 11:38:00,,0826.0,4.99,0.00,22.4,21.6,00.0,31.5,24.1,06.0,0000.0,0004.16,0000.76,0000.49
2022-02-08 11:39:00,,0826.1,4.99,0.00,22.4,21.6,00.0,31.5,24.1,06.1,0000.0,0002.86,0000.77,0000.49
2022-02-08 11:40:00,,0826.0,5.02,0.00,22.4,21.6,00.0,31.5,24.0,06.3,0000.0,0002.64,0000.79,0000.49
2022-02-08 11:41:00,,0826.1,4.99,0.00,22.4,21.6,00.0,31.5,24.0,06.3,0000.0,0002.70,0000.80,0000.49
2022-02-08 11:42:00,,0826.0,5.00,0.00,22.4,21.6,00.0,31.5,24.0,06.4,0000.0,0002.67,0000.79,0000.49
2022-02-08 11:43:00,,0826.0,5.01,0.00,22.4,21.6,00.0,31.5,24.1,06.5,0000.0,0002.78,0000.80,0000.49
2022-02-08 11:44:00,,0826.1,5.00,0.00,22.4,21.6,00.0,31.5,24.1,06.4,0000.0,0003.03,0000.81,0000.48
2022-02-08 11:45:00,,0826.0,4.99,0.00,22.4,21.6,00.0,31.5,24.1,06.4,0000.0,0003.83,0000.83,0000.49
2022-02-08 11:46:00,,0825.8,5.00,0.00,22.4,21.6,00.0,31.5,24.1,06.5,0000.0,0004.03,0000.84,0000.49
2022-02-08 11:47:00,,0825.6,4.99,0.00,22.4,21.6,00.0,31.4,24.2,06.2,0000.0,0003.90,0000.84,0000.49
2022-02-08 11:48:00,,0825.5,5.02,0.00,22.4,21.6,00.0,31.4,24.2,06.2,0000.0,0003.25,0000.90,0000.50
2022-02-08 11:49:00,,0825.6,5.00,0.00,22.4,21.6,00.0,31.4,24.2,06.5,0000.0,0003.23,0000.90,0000.50
2022-02-08 11:50:00,,0825.7,5.00,0.00,22.4,21.5,00.0,31.4,24.1,06.4,0000.0,0003.22,0000.93,0000.50
2022-02-08 11:51:00,,0825.6,4.99,0.00,22.4,21.5,00.0,31.4,24.0,06.4,0000.0,0003.93,0000.91,0000.50
2022-02-08 11:52:00,,0825.6,5.01,0.00,22.3,21.5,00.0,31.4,23.9,06.5,0000.0,0004.28,0000.92,0000.50
2022-02-08 11:53:00,,0825.7,4.99,0.00,22.3,21.5,00.0,31.4,24.0,06.6,0000.0,0004.50,0000.97,0000.50
2022-02-08 11:54:00,,0825.8,5.01,0.00,22.3,21.4,00.0,31.4,23.9,06.5,0000.0,0004.52,0000.99,0000.51
2022-02-08 11:55:00,,0826.0,4.98,0.00,22.3,21.4,00.0,31.4,24.0,06.3,0000.0,0004.18,0000.96,0000.51
2022-02-08 11:56:00,,0825.8,5.02,0.00,22.3,21.4,00.0,31.4,23.9,06.5,0000.0,0003.75,0000.99,0000.51
2022-02-08 11:57:00,,0825.6,4.99,0.00,22.3,21.4,00.0,31.4,23.9,06.4,0000.0,0003.59,0001.02,0000.51
2022-02-08 11:58:00,,0825.6,5.01,0.00,22.3,21.4,00.0,31.3,23.9,06.4,0000.0,0003.62,0001.04,0000.51
2022-02-08 11:59:00,,0825.5,5.00,0.00,22.2,21.4,00.0,31.3,23.8,06.8,0000.0,0003.54,0001.02,0000.52
